Погода в Пае

Россия / Республика Карелия     61°12′26″N   34°26′10″E
темп.,
°C
ветер,
м/с
пор.,
м/с
влажн.,
%
обл.,
%
осадки,
мм/ч
давл.,
гПа
погр.,
м
22 мая, вс
вс2200:000св23741 0.0 101544
03:00−1ссв237832 0.0 101563
06:00+1ссв24715 0.0 1015218
09:00+5ссв46505 0.0 10141122
12:00+7ссв57390 0.0 10141207
15:00+9ссв57340 0.0 10131459
18:00+9ссв48350 0.0 10121544
21:00+4с24590 0.0 101174
23 мая, пн
пн2300:000с210790 0.0 1011244
03:00−1с311794 0.0 1011369
06:00+1с411705 0.0 1011468
09:00+5с510455 0.0 1010827
12:00+9с69345 0.0 10091307
15:00+11с61030100 0.0 10081644
18:00+8ссв51239100 0.0 10081305
21:00+5с51345100 0.0 1008912
24 мая, вт
вт2400:00+3с41257100 0.0 1008994
03:00+1с51281100 0.1 10081003
06:00+1с51195100 1.1 1009774
09:00+2ссв5878100 1.3 10101036
12:00+3ссв5775100 0.1 10121009
15:00+5ссв467096 0.1 10131066
18:00+5ссв4673100 0.0 1014756
21:00+3ссв28879 0.1 1015319
25 мая, ср
ср2500:000с27965 0.0 1016156
03:000с26977 0.0 1017121
06:00+3ссв24895 0.0 1017198
09:00+8ссв226637 0.0 1016988
12:00+8с2258100 0.1 10161134
15:00+9с1255100 0.1 10151310
18:00+7зсз2174100 0.1 1015792
21:00+6юз1187100 0.2 101418
26 мая, чт
чт2600:00+5юв118991 0.0 101344
03:00+4ююв1391100 0.0 101295
06:00+6вюв128382 0.0 1011190
09:00+7вюв237489 0.0 1009627
12:00+10вюв3467100 0.0 10081010
15:00+12в336092 0.0 10061105
18:00+12всв3667100 0.0 1005748
21:00+7св3780100 0.0 1005214